Regional Weather Roundup
Issued by NWS Raleigh/Durham, NC

Home | Current Version | Previous Version | Text Only | Print | Product List | Glossary On
Versions: 1 2 3 4 5 6 7 8 9 10 11 12 13 14 15 16 17 18 19 20 21 22 23 24 25 26 27
000
ASUS42 KRAH 240510
RWRRAH
NORTH CAROLINA WEATHER ROUNDUP
NATIONAL WEATHER SERVICE RALEIGH NC
100 AM EDT THU APR 24 2014

NOTE: "FAIR" INDICATES FEW OR NO CLOUDS BELOW 12,000 FEET WITH NO
SIGNIFICANT WEATHER AND/OR OBSTRUCTIONS TO VISIBILITY.

NCZ001-053-055-056-065-067-240600-
WESTERN NORTH CAROLINA

CITY           SKY/WX    TMP DP  RH WIND       PRES   REMARKS
ASHEVILLE      CLEAR     50  30  46 CALM      30.02F
JEFFERSON      CLEAR     48  19  31 N6G16     30.03S
MORGANTON      CLEAR     47  31  53 NE3       30.05S
HICKORY        CLEAR     52  30  43 NE3       30.01R
RUTHERFORDTON  CLEAR     56  29  34 N3        30.00R
MOUNT AIRY     CLEAR     52  27  38 N6        30.02S
BOONE          CLEAR     47  21  36 W6        30.04S
$$

NCZ021-022-025-041-071-084-088-240600-
CENTRAL NORTH CAROLINA

CITY           SKY/WX    TMP DP  RH WIND       PRES   REMARKS
CHARLOTTE      CLEAR     58  28  32 NE8       30.01R
GREENSBORO     CLEAR     53  28  38 NE6       30.01R
WINSTON-SALEM  CLEAR     52  28  39 NE6       30.03R
RALEIGH-DURHAM CLEAR     53  33  46 NE6       30.02R
FORT BRAGG     CLEAR     57  32  39 N6        29.99R
FAYETTEVILLE   CLEAR     54  36  50 N8        29.99R
CHAPEL HILL    CLEAR     54  31  41 NW5       30.02R
BURLINGTON     CLEAR     46  31  55 N6        30.02R
LAURINBURG     CLEAR     49  40  71 N5        30.00R
$$

NCZ011-015-027-028-043-044-047-080-103-240600-
NORTHEASTERN NORTH CAROLINA

CITY           SKY/WX    TMP DP  RH WIND       PRES   REMARKS
ROCKY MT-WILSO CLEAR     49  36  61 N6        30.01R
GREENVILLE     CLEAR     52  37  58 CALM      30.01R
WASHINGTON     CLEAR     53  38  57 N7        29.99R
ELIZABETH CITY CLEAR     49  37  63 W6        29.98R
MANTEO         CLEAR     50  43  76 CALM      29.97R
CAPE HATTERAS  CLEAR     46  41  82 NE3       29.98R
$$

NCZ078-087-090-091-093-098-101-240600-
SOUTHEASTERN NORTH CAROLINA

CITY           SKY/WX    TMP DP  RH WIND       PRES   REMARKS
LUMBERTON      CLEAR     46  43  89 CALM      29.98R
GOLDSBORO      CLEAR     56  36  46 NE5       29.98R
KINSTON        CLEAR     53  38  57 N5        30.00R
KENANSVILLE    CLEAR     52  38  59 N3        29.99R
NEW BERN       CLEAR     54  41  61 NE6       29.99R
CHERRY POINT   CLEAR     54  42  64 NE5       29.98R
BEAUFORT       CLEAR     54  49  83 NE3       29.97R
JACKSONVILLE   CLEAR     49  46  90 CALM      29.96R
WILMINGTON     CLEAR     51  44  77 CALM      29.97R
$$




USA.gov is the U.S. government's official web portal to all federal, state and local government web resources and services.